Flag Weather past 2 weeks in Papenburg, Lower Saxony, Germany

Now
53 °F

Fog.


Feels Like: 53 °F
Forecast: 51 / 63 °F
Wind: 2 mph from Northeast

Location: Emden-Koenigspolder

Current Time: Oct 31, 2014 at 7:13:38 AM

Latest Report: Oct 31, 2014 at 6:00 AM


Visibility: 2 mi

Pressure: 30.14 "Hg

Humidity: 98%

Dew point: 53 °F

Location of PapenburgLocation

Historic Weather in Papenburg — Graph

°F

Papenburg temperature yesterday

Maximum temperature yesterday: 54 °F (at 9:00 PM)
Minimum temperature yesterday: 37 °F (at 6:00 AM)
Average temperature yesterday: 46 °F

Past Weeks' High & Low Weather Summary

 TemperatureHumidityPressure
High67 °F (Oct 19, 1:00 PM)100% (Oct 16, 7:00 AM)30.22 "Hg (Oct 16, 7:00 AM)
Low37 °F (Oct 30, 6:00 AM)59% (Oct 22, 6:00 PM)29.32 "Hg (Oct 21, 4:00 PM)
Average54 °F87%29.96 "Hg
* Reported Oct 16 7:00 AM — Oct 31 6:00 AM, Papenburg, Weather by CustomWeather, © 2014

Note: Actual official high and low records may vary slightly from our data, if they occured in-between our weather recording intervals... More about our weather records

Advertising

Papenburg weather history for previous 24 hours

 ConditionsComfort  
Time TempWeatherWind HumidityBarometerVisibility
6:00 AM
Oct 31
53 °FFog.3 mph98%30.14 "Hg2 mi
5:00 AM53 °FFog.3 mph97%30.14 "Hg2 mi
3:00 AM53 °FFog.2 mph99%30.14 "Hg2 mi
2:00 AM52 °FFog.2 mph99%30.15 "Hg2 mi
1:00 AM51 °FPassing clouds.2 mph99%30.16 "Hg2 mi
12:00 AM51 °FFog.1 mph98%30.16 "Hg1 mi
11:00 PM
Oct 30
53 °FFog.2 mph97%30.16 "Hg2 mi
10:00 PMN/APassing clouds.N/AN/AN/A2 mi
9:00 PM54 °FLow clouds.3 mph96%30.17 "Hg2 mi
8:00 PM53 °FFog.7 mph95%30.16 "Hg2 mi
7:00 PM53 °FLow clouds.6 mph95%30.17 "Hg3 mi
6:00 PM53 °FDrizzle. Low clouds.5 mph94%30.18 "Hg4 mi
5:00 PM53 °FFog.5 mph93%30.18 "Hg4 mi
3:00 PM53 °FLow clouds.6 mph91%30.18 "Hg6 mi
2:00 PM52 °FFog.5 mph92%30.19 "Hg3 mi
1:00 PM51 °FFog.5 mph96%30.21 "Hg3 mi
12:00 PM48 °FLow clouds.5 mph99%30.22 "Hg2 mi
11:00 AM46 °FLow clouds.5 mph99%30.22 "Hg0 mi
9:00 AM40 °FLow clouds.2 mph100%30.21 "Hg0 mi
8:00 AM39 °FFog.2 mph100%30.20 "Hg2 mi
7:00 AM37 °FOvercast.2 mph100%30.19 "Hg4 mi
Weather by CustomWeather, © 2014

See weather overviewHow to use our weather pages